Location: Corcelles
(46.1547°N, 4.7234°E)
Time: 08:46:09
(UTC+00:00)

UNK - Pass Details

Date: 14 July 2020
Orbit: 667 x 686 km, 98.1° (Epoch: 14 August)

Event Time Altitude Azimuth Distance (km) Brightness Sun altitude
Exits shadow 01:33:04 33° 182° (S) 1,125 4.4 -18.1°
Maximum altitude 01:35:05 71° 257° (WSW) 719 3.7 -17.9°
Drops below altitude 10° 01:39:43 10° 342° (NNW) 2,127 6.9 -17.6°
Sets 01:41:59 0° 345° (NNW) 3,050 7.9 -17.4°
